Concordia, KS

10:15 PM CST on November 22, 2017 (GMT -0600)
Blosser Municipal

Weather History for KCNK - November, 2011

Change the Weather History Date:

Friday, November 11, 2011

  Actual Average Record
Temperature  
Mean Temperature 49 °F 44 °F  
Max Temperature 62 °F 55 °F 77 °F (1989)
Min Temperature 36 °F 33 °F 6 °F (1986)
Degree Days  
Heating Degree Days 16 21  
Month to date heating degree days 201  
Since 1 July heating degree days 592  
Cooling Degree Days 0 0  
Month to date cooling degree days 0  
Year to date cooling degree days 1348  
Moisture  
Dew Point 29 °F    
Average Humidity 53    
Maximum Humidity 71    
Minimum Humidity 31    
Precipitation  
Precipitation 0.00 in 0.03 in 1.14 in (2010)
Month to date precipitation 0.48  
Year to date precipitation 26.41  
Snow  
Snow 0.00 in 0.10 in 0.20 in (1970)
Month to date snowfall 0.5  
Year to date snowfall 14.4  
Since 1 July snowfall 0.7  
Snow Depth -    
Sea Level Pressure  
Sea Level Pressure 29.83 in    
Wind  
Wind Speed 10 mph (SW)    
Max Wind Speed 15 mph    
Max Gust Speed -    
Visibility 10 miles    
Events      
T = Trace of Precipitation, MM = Missing Value Source: NWS Daily Summary

Daily Weather History Graph

Daily Weather History Graph

Search for Another Location

Airport or City:

Trip Planner

Search our weather history database for the weather conditions in past years. The results will help you decide how hot, cold, wet, or windy it might be!

Date:

Astronomy

Nov. 11, 2011 Rise Set
Actual Time 7:09 AM CST 5:18 PM CST
Civil Twilight 6:41 AM CST 5:47 PM CST
Nautical Twilight 6:09 AM CST 6:19 PM CST
Astronomical Twilight 5:37 AM CST 6:51 PM CST
Moon 5:49 PM CST (11/11) 7:59 AM CST (11/11)
Length of Visible Light 11h 05m
Length of Day
10h 08m
Full, 99% of the Moon is Illuminated
Nov 11
Full
Nov 18
Last Quarter
Nov 25
New
Dec 2
First Quarter
Dec 10
Full

Hourly Weather History & Observations

Time (CST) Temp. Windchill Dew Point Humidity Pressure Visibility Wind Dir Wind Speed Gust Speed Precip Events Conditions
12:55 AM 39.9 °F 33.4 °F 30.0 °F 68% 29.94 in 10.0 mi SSW 10.4 mph - N/A   Clear
1:55 AM 39.0 °F 34.0 °F 28.9 °F 67% 29.92 in 10.0 mi SW 6.9 mph - N/A   Clear
2:55 AM 37.9 °F 33.5 °F 28.9 °F 70% 29.91 in 10.0 mi SW 5.8 mph - N/A   Clear
3:55 AM 39.0 °F 32.3 °F 28.9 °F 67% 29.88 in 10.0 mi SW 10.4 mph - N/A   Clear
4:55 AM 37.4 °F 28.9 °F 28.4 °F 70% 29.84 in 10.0 mi SW 13.8 mph - N/A   Clear
5:55 AM 37.0 °F 30.4 °F 28.0 °F 70% 29.86 in 10.0 mi WSW 9.2 mph - N/A   Clear
6:55 AM 36.0 °F 28.5 °F 27.0 °F 70% 29.86 in 10.0 mi WSW 10.4 mph - N/A   Clear
7:55 AM 37.9 °F 29.6 °F 26.1 °F 62% 29.86 in 10.0 mi WSW 13.8 mph - N/A   Clear
8:55 AM 42.1 °F 34.5 °F 28.0 °F 58% 29.86 in 10.0 mi West 15.0 mph - N/A   Clear
9:55 AM 46.0 °F 39.9 °F 27.0 °F 47% 29.86 in 10.0 mi WNW 13.8 mph - N/A   Clear
10:55 AM 51.1 °F - 28.0 °F 41% 29.86 in 10.0 mi West 9.2 mph - N/A   Clear
11:55 AM 55.9 °F - 28.0 °F 34% 29.83 in 10.0 mi WNW 9.2 mph - N/A   Clear
12:55 PM 60.1 °F - 30.9 °F 33% 29.81 in 10.0 mi WNW 6.9 mph - N/A   Clear
1:55 PM 62.1 °F - 30.9 °F 31% 29.80 in 10.0 mi West 5.8 mph - N/A   Clear
3:55 PM 62.1 °F - 30.9 °F 31% 29.79 in 10.0 mi WSW 4.6 mph - N/A   Clear
4:55 PM 55.9 °F - 32.0 °F 40% 29.79 in 10.0 mi SSW 6.9 mph - N/A   Clear
5:55 PM 50.0 °F - 30.9 °F 48% 29.79 in 10.0 mi SW 6.9 mph - N/A   Clear
6:55 PM 48.9 °F - 30.0 °F 48% 29.79 in 10.0 mi SSW 8.1 mph - N/A   Clear
7:55 PM 50.0 °F - 28.9 °F 44% 29.78 in 10.0 mi South 9.2 mph - N/A   Clear
8:55 PM 51.1 °F - 28.0 °F 41% 29.77 in 10.0 mi SSW 12.7 mph - N/A   Clear
9:55 PM 48.0 °F - 28.9 °F 48% 29.76 in 10.0 mi SSW 11.5 mph - N/A   Clear
10:55 PM 45.0 °F 39.7 °F 32.0 °F 60% 29.74 in 10.0 mi SSW 10.4 mph - N/A   Clear
11:55 PM 44.1 °F 38.1 °F 35.1 °F 71% 29.71 in 10.0 mi SSW 11.5 mph - N/A   Clear